Weather History for Kuwait, Kuwait

Change the Weather History Date:

Monday, June 24, 2013

  Actual Average Record
Temperature  
Mean Temperature 102 °F -  
Max Temperature 114 °F 110 °F 120 °F (1998)
Min Temperature 91 °F 84 °F 78 °F (2004)
Cooling Degree Days 38    
Growing Degree Days 52 (Base 50)    
Moisture  
Dew Point 31 °F    
Average Humidity 8    
Maximum Humidity 14    
Minimum Humidity 4    
Precipitation  
Precipitation 0.00 in 0.00 in - ()
Sea Level Pressure  
Sea Level Pressure 29.49 in    
Wind  
Wind Speed 14 mph ()    
Max Wind Speed 23 mph    
Max Gust Speed -    
Visibility 4.9 miles    
Events      
Averages and records for this station are not official NWS values.
T = Trace of Precipitation, MM = Missing Value Source: Averaged Metar Reports

Daily Weather History Graph

Daily Weather History Graph

Search for Another Location

Airport:

Trip Planner

Search our weather history database for the weather conditions in past years. The results will help you decide how hot, cold, wet, or windy it might be!

Date:

Astronomy

Jun. 24, 2013 Rise Set
Actual Time 4:50 AM AST 6:50 PM AST
Civil Twilight 4:22 AM AST 7:18 PM AST
Nautical Twilight 3:49 AM AST 7:50 PM AST
Astronomical Twilight 3:14 AM AST 8:26 PM AST
Moon 7:43 PM AST (6/24) 5:44 AM AST (6/24)
Length of Visible Light 14h 55m
Length of Day
14h 00m
Full, 99% of the Moon is Illuminated
Jun 24
Full
Jun 30
Last Quarter
Jul 8
New
Jul 16
First Quarter
Jul 22
Full

Hourly Weather History & Observations

Time (AST) Temp. Dew Point Humidity Pressure Visibility Wind Dir Wind Speed Gust Speed Precip Events Conditions
12:00 AM 98.6 °F 32.0 °F 10% 29.50 in - NW 17.3 mph - N/A   Clear
1:00 AM 98.6 °F 33.8 °F 10% 29.50 in - NNW 16.1 mph - N/A   Clear
2:00 AM 95.0 °F 35.6 °F 12% 29.50 in - NNW 15.0 mph - N/A   Clear
3:00 AM 95 °F 36 °F 6% 29.49 in 6 mi North 12.7 mph - -  
3:00 AM 95.0 °F 35.6 °F 12% 29.50 in - North 13.8 mph - N/A   Clear
4:00 AM 93.2 °F 35.6 °F 13% 29.50 in - North 10.4 mph - N/A   Clear
5:00 AM 91.4 °F 35.6 °F 14% 29.50 in - North 11.5 mph - N/A   Clear
6:00 AM 93.2 °F 35.6 °F 13% 29.50 in - NNW 10.4 mph - N/A   Clear
7:00 AM 96.8 °F 32.0 °F 10% 29.53 in - NNW 10.4 mph - N/A   Clear
8:00 AM 100.4 °F 30.2 °F 9% 29.50 in - NNW 12.7 mph - N/A   Clear
9:00 AM 102.2 °F 30.2 °F 8% 29.50 in - NNW 16.1 mph - N/A   Clear
10:00 AM 105.8 °F 21.2 °F 5% 29.53 in - North 16.1 mph - N/A   Clear
11:00 AM 109.4 °F 21.2 °F 4% 29.53 in 4.3 mi North 18.4 mph - N/A   Clear
12:00 PM 113.0 °F 23.0 °F 4% 29.53 in 4.3 mi NNW 19.6 mph - N/A   Light Blowing Widespread Dust
1:00 PM 114.8 °F 23.0 °F 4% 29.47 in 5.0 mi NNW 21.9 mph - N/A   Light Blowing Widespread Dust
2:00 PM 114.8 °F 26.6 °F 5% 29.47 in 5.0 mi NNW 23.0 mph - N/A   Light Blowing Widespread Dust
3:00 PM 114.8 °F 30.2 °F 6% 29.47 in 5.0 mi North 21.9 mph - N/A   Light Blowing Widespread Dust
4:00 PM 114.8 °F 28.4 °F 5% 29.47 in - NNW 20.7 mph - N/A   Clear
5:00 PM 113.0 °F 32.0 °F 6% 29.44 in - NNW 20.7 mph - N/A   Clear
6:00 PM 111.2 °F 32.0 °F 7% 29.47 in - NNW 16.1 mph - N/A   Clear
7:00 PM 107.6 °F 33.8 °F 8% 29.47 in - North 15.0 mph - N/A   Clear
8:00 PM 107.6 °F 32.0 °F 7% 29.47 in - North 16.1 mph - N/A   Clear
9:00 PM 105.8 °F 32.0 °F 8% 29.47 in - North 13.8 mph - N/A   Clear
10:00 PM 104.0 °F 32.0 °F 8% 29.50 in - NNW 13.8 mph - N/A   Clear
11:00 PM 102.2 °F 32.0 °F 9% 29.47 in - NNW 13.8 mph - N/A   Clear